Location: Marcé
(47.5801°N, 0.3280°W)
Time: 23:28:38
(UTC+01:00)

Transit 2A - Pass Details

Date: 30 November 2021
Orbit: 591 x 967 km, 66.7° (Epoch: 23 January)

Event Time Altitude Azimuth Distance (km) Brightness Sun altitude
Rises 01:52:45 0° 200° (SSW) 3,263 - -61.2°
Reaches altitude 10° 01:55:04 10° 197° (SSW) 2,394 - -60.9°
Maximum altitude 02:00:33 61° 118° (ESE) 982 - -60.4°
Drops below altitude 10° 02:06:36 10° 40° (NE) 2,634 - -59.8°
Sets 02:09:15 0° 37° (NE) 3,616 - -59.6°
